NOAA 16 DEB, 41152

Orbit data source: Space-Track

NOAA 16 DEB, 41152 is space debris in SSO originally from a launch on Thu, 21 Sep 2000 UTC launched from the Air Force Western Test Range (AFWTR). Debris objects in space refer to the collection of defunct objects orbiting the Earth. Examples of debris include non-operational satellites, rocket bodies, and fragments generated from explosions, collisions, or faulty payload assembly.

Loading next visibility...
Identifier
41152, 2000-055CK
Orbit
SSO
Country
Flag of USUS
Related business
Manufacturer
Unknown
Mission
Spacecraft
Bus & Motor
Unknown
Mass
Unknown
Launch date (UTC)
2000-09-21 (25 years ago)
Launch vehicle
Unknown
Launch site
Air Force Western Test Range (AFWTR)
Object type
Payload
Rocket body
Debris
Shape & HBR
Unknown shape, 0.1 m
Radar Cross Section
Small (<0.1 m²)

Expand to show TLE details & history
Last TLE update: 14 hours ago

TLE from 14 hours ago
0 NOAA 16 DEB
1 41152U 00055CK  25293.26089791  .00010864  00000-0  38465-2 0  9993
2 41152  98.8266  47.0463 0012515 166.3319 193.8206 14.34676946512222
Epoch: 2025-10-20T06:15Z
TLE epoch observation values (Epoch: 2025-10-20T06:15:41.579Z)
Latitude
-0.00006°
Longitude
-75.84269°
Altitude
787.768 km
Speed
7.455 km/s
True Right ascension
03h 08m 11s
True Declination
0° 00' 00"
Sunlit
Object was in full shadow at epoch
Visualization orbit readout
Latitude
Unknown
Longitude
Unknown
Altitude
Unknown
Speed
Unknown
Apparent Right ascension
Unknown
Apparent Declination
Unknown
Sunlit
N/A
Visualization observer readout
Local Sidereal Time
15:23:42
Azimuth
Unknown
Elevation
Unknown
Doppler factor
Unknown
Orbital elements
Apogee altitude
782.235 km
Perigee altitude
764.335 km
Semi-major axis
7,151.422 km
Eccentricity
0.00125
Inclination
98.8266°
RAAN
47.0463°
Arg. of periapsis
166.3319°
True anomaly
193.78639°
Mean anomaly
193.8206°
Eccentric anomaly
193.80349°
Mean motion
3.58884 °/min
Orbital period
100.31 mins
BSTAR
0.0038465
Loading maneuver chart data...
Computing Atmospheric mass density...
Loading historical data...
Loading historical data...
Loading historical data...
Loading historical data...
Loading historical data...
Loading historical data...
Loading historical data...

Documentation

Showing up to 5 results
|